EHI
0 0 0 0 0 0 0 0 0 0 0 0 0 0 0 0 0 0 0 0 0 0 0 0 0 0 0 0 0 0 0 0 0 0 0 0 0 0
0 0 0 0 0 0 0 0 0 0 0 0 0 0 0 0 0 0 0 0 0 0 0 0 0 0 0 0 0 0 0 0 0 0 0 0 0 0
0 0 0 0 0 0 0 0 0 0 0 0 0 0 0 0 0 0 0 0 0 0 0 0 0 0 0 0 0 0 0 0 0 0 0 0 0 0
0 0 0 0 0 0 0 0 0 0 0 0 0 0 0 0 0 0 0 0 0 0 0 0 0 0 0 0 0 0 0 0 0 0 0 0 0 0
0 0 0 0 0 0 0 0 0 0 0 0 0 0 0 0 0 0 0 0 0 0 0 0 0 0 0 0 0 0 0 0 0 0 0 0 0 0
0 0 0 0 0 0 0 0 0 0 0 0 0 0 0 0 0 0 0 0 0 0 0 0 0 0 0 0 0 0 0 0 0 0 0 0 0 0
0 0 0 0 0 0 0 0 0 0 0 0 0 0 0 0 0 0 0 0 0 0 0 0 0 0 0 0 0 0 0 0 0 0 0 0 0 0
0 0 0 0 0 0 0 0 0 0 0 0 0 0 0 0 0 0 0 0 0 0 0 0 0 0 0 0 0 0 0 0 0 0 0 0 0 0
0 0 0 0 0 0 0 0 0 0 0 0 0 0 0 0 0 0 0 0 0 0 0 0 0 0 0 0 0 0 0 0 0 0 0 0 0 0
0 0 0 0 0 0 0 0 0 0 0 0 0 0 0 0 0 0 0 0 0 0 0 0 0 0 0 0 0 0 0 0 0 0 0 0 0 0
0 0 0 0 0 0 0 0 0 0 0 0 0 0 0 0 0 0 0 0 0 0 0 0 0 0 0 0 0 0 0 0 0 0 0 0 0 0
0 0 0 0 0 0 0 0 0 0 0 0 0 0 0 0 0 0 0 0 0 0 0 0 0 0 0 0 0 0 0 0 0 0 0 0 0 0
0 0 0 0 0 0 0 0 0 0 0 0 0 0 0 0 0 0 0 0 0 0 0 0 0 0 0 0 0 0 0 0 0 0 0 0 0 0
0 0 0 0 0 0 0 0 0 0 0 0 0 0 0 0 0 0 0 0 0 0 0 0 0 0 0 0 0 0 0 0 0 0 0 0 0 0
0 0 0 0 0 0 0 0 0 0 0 0 0 0 0 0 0 0 0 0 0 0 0 0 0 0 0 0 0 0 0 0 0 0 0 0 0 0
0 0 0 0 0 0 0 0 0 0 0 0 0 0 0 0 0 0 0 0 0 0 0 0 0 0 0 0 0 0 0 0 0 0 0 0 0 0
0 0 0 0 0 0 0 0 0 0 0 0 0 0 0 0 0 0 0 0 0 0 0 0 0 0 0 0 0 0 0 0 0 0 0 0 0 0
0 0 0 0 0 0 0 0 0 0 0 0 0 0 0 0 0 0 0 0 0 0 0 0 0 0 0 0 0 0 0 0 0 0 0 0 0 0
0 0 0 0 0 0 0 0 0 0 0 0 0 0 0 0 0 0 0 0 0 0 0 0 0 0 0 0 0 0 0 0 0 0 0 0 0 0
0 0 0 0 0 0 0 0 0 0 0 0 0 0 0 0 0 0 0 0 0 0 0 0 0 0 0 0 0 0 0 0 0 0 0 0 0 0
0 0 0 0 0 0 0 0 0 0 0 0 0 0 0 0 0 0 0 0 0 0 0 0 0 0 0 0 0 0 0 0 0 0 0 0 0 0
0 0 0 0 0 0 0 0 0 0 0 0 0 0 0 0 0 0 0 0 0 0 0 0 0 0 0 0 0 0 0 0 0 0 0 0 0 0
0 0 0 0 0 0 0 0 0 0 0 0 0 0 0 0 0 0 0 0 0 0 0 0 0 0 0 0 0 0 0 0 0 0 0 0 0 0
Wind_Speed
2 2 2 1 1 1 1 2 2 1 2 2 1 2 2 2 6 4 4 9 10 11 11 11 12 12 12 12 10 8 7 8 9 9 9 9 10 10
2 3 2 1 1 1 1 1 1 2 1 1 2 2 3 4 6 4 5 9 9 10 10 10 11 11 11 11 12 9 8 8 9 9 10 10 10 10
2 3 2 2 2 1 1 1 1 1 2 2 2 2 2 3 4 4 4 4 4 9 10 10 10 11 11 11 11 10 9 9 9 9 10 10 11 11
3 3 3 2 2 1 1 1 1 1 2 2 2 2 2 3 3 4 4 4 4 8 10 10 10 10 10 11 11 10 10 9 9 9 10 10 11 11
4 4 3 3 2 2 2 1 1 1 1 2 2 2 2 2 3 3 4 4 5 6 8 8 9 10 10 10 11 10 9 9 9 9 10 11 11 11
3 3 3 4 4 3 2 2 2 1 1 1 2 2 2 2 1 3 4 3 4 5 6 6 8 9 10 10 10 10 9 9 9 9 9 10 11 11
2 2 3 4 5 4 3 3 2 2 1 1 2 2 2 2 2 2 4 4 4 3 3 4 4 4 5 8 9 9 9 9 9 9 9 10 11 12
3 2 2 3 4 5 4 4 4 3 3 2 2 3 3 3 2 3 3 3 4 2 3 5 3 4 4 4 8 10 9 9 9 10 10 10 11 12
3 2 2 2 3 2 3 3 3 4 4 3 3 4 4 3 3 3 3 3 4 4 3 5 3 4 4 5 10 10 9 10 10 11 11 11 12 12
3 3 3 2 3 3 2 1 2 2 3 2 3 4 3 3 3 3 3 4 5 4 2 4 4 4 5 4 9 9 10 11 11 11 11 12 12 13
2 2 3 3 5 5 3 2 2 2 3 4 4 4 5 5 3 1 1 2 4 3 1 2 3 4 4 3 4 8 9 11 12 12 12 12 12 12
1 2 4 4 5 5 3 3 3 3 2 2 2 3 3 4 4 2 2 2 3 3 1 2 2 3 4 3 2 3 4 8 11 12 13 13 13 7
1 2 2 5 5 5 4 3 4 3 2 2 2 2 2 2 2 2 2 3 3 4 2 2 2 2 3 4 3 3 3 3 5 7 9 12 13 9
2 1 2 4 4 4 3 3 4 2 1 1 1 2 2 2 2 2 3 3 4 5 5 3 3 3 3 5 5 3 3 3 4 5 4 9 10 12
2 3 3 4 3 2 3 3 1 0 1 1 2 2 2 2 2 2 3 3 4 4 4 3 3 4 4 4 5 4 4 4 3 3 4 4 5 5
0 1 2 2 1 1 2 1 0 0 1 1 2 2 2 2 2 2 2 2 3 3 3 3 4 4 4 5 5 6 5 4 4 4 5 5 5 4
1 1 0 0 0 0 1 1 1 1 1 1 1 2 2 2 2 2 2 2 2 3 4 3 3 4 5 5 5 6 5 5 5 5 4 6 5 5
2 1 1 1 1 1 1 1 1 1 1 1 2 2 2 3 3 2 2 2 3 4 4 3 3 3 3 4 7 6 5 5 5 4 4 5 7 5
1 1 2 2 2 2 2 2 2 2 2 2 2 2 2 2 2 3 3 3 4 4 4 3 2 2 3 6 5 5 5 5 4 5 4 4 7 7
1 1 2 2 2 2 2 2 2 2 2 2 2 2 2 2 3 3 3 4 4 4 4 3 3 3 4 5 5 5 7 6 5 5 5 5 6 9
1 2 2 2 2 2 2 3 3 3 3 3 3 3 3 3 3 4 4 7 5 4 5 5 5 7 4 2 5 6 5 7 8 6 5 6 6 6
2 2 2 2 2 2 3 3 3 3 3 3 3 3 3 3 4 5 4 4 4 4 5 5 4 3 2 4 6 7 6 6 8 11 11 9 5 5
2 2 2 3 3 3 3 3 4 4 4 4 4 4 4 4 4 4 4 4 4 5 5 5 3 3 4 5 6 6 7 7 5 6 6 10 13 15
Wind_Direction
141 133 124 123 125 121 127 159 161 204 286 290 307 326 335 330 336 342 335 337 344 345 346 350 352 350 346 343 335 325 323 323 322 319 315 310 300 298
146 136 135 131 124 114 128 129 147 170 234 276 283 304 321 330 333 338 328 335 339 339 341 344 346 345 344 343 344 335 325 320 321 318 317 314 304 298
152 148 152 139 137 139 138 132 137 155 220 284 294 306 310 318 324 326 325 322 323 332 335 339 341 341 340 339 339 336 334 332 328 323 321 318 312 307
170 161 167 152 146 155 156 166 184 190 199 259 296 300 294 300 309 321 327 329 319 323 330 332 336 336 334 335 334 334 332 328 327 324 322 319 315 313
178 175 178 162 173 178 173 183 198 202 200 227 276 287 290 298 315 315 315 313 315 320 325 326 328 330 332 332 333 330 329 328 325 324 323 322 317 315
179 182 183 184 188 187 187 188 184 186 197 225 265 281 283 290 297 308 316 318 316 317 318 319 322 327 328 327 326 326 325 327 325 322 321 323 321 317
178 190 197 198 201 200 195 190 185 185 200 232 262 285 291 297 294 294 307 315 306 297 311 310 310 308 314 317 320 320 318 324 329 325 323 323 323 321
180 190 203 212 215 220 222 217 201 196 204 223 250 261 273 277 280 291 302 317 307 310 315 302 298 291 291 289 307 313 314 320 324 323 320 319 318 317
185 192 209 213 222 219 236 253 250 245 233 222 234 248 258 259 267 278 280 284 279 289 301 288 284 284 285 292 303 305 309 316 318 318 318 315 313 313
196 202 204 210 217 208 201 222 241 253 255 247 234 245 254 252 242 252 264 278 280 275 273 280 285 283 290 282 292 301 309 314 314 315 315 314 312 311
205 205 210 214 232 226 204 214 247 264 271 273 271 275 282 285 279 283 285 293 292 288 268 268 289 298 288 274 289 309 315 315 315 317 317 315 313 313
202 217 227 230 241 232 208 204 229 246 254 278 288 298 299 294 291 257 242 262 280 284 272 281 290 315 305 283 281 293 301 308 315 318 319 318 318 314
212 223 240 252 253 250 238 216 232 234 208 223 256 280 291 285 284 271 248 243 252 259 270 281 277 279 274 296 298 283 285 296 305 306 312 316 318 318
212 227 241 261 266 262 259 256 256 253 189 224 251 267 279 283 284 280 267 256 250 256 266 261 257 263 278 287 289 295 293 288 293 297 302 314 317 318
216 240 249 260 266 278 292 290 279 236 195 245 262 264 265 269 279 288 287 278 275 269 264 256 253 261 256 265 281 288 302 298 291 297 304 307 303 307
231 267 277 267 271 298 311 319 338 250 228 242 268 281 282 274 274 276 283 299 296 290 271 254 250 250 260 263 264 275 278 283 296 296 297 294 291 286
158 130 98 308 267 295 326 330 328 333 305 286 266 277 286 289 283 277 267 273 269 282 295 290 270 259 250 250 260 263 269 272 275 288 293 295 290 284
181 175 202 215 231 244 252 270 268 269 271 272 275 270 273 276 284 287 276 267 274 278 282 288 303 311 301 272 239 253 263 269 277 279 275 284 289 288
191 195 213 222 231 237 239 240 246 252 252 255 261 269 272 274 277 280 281 278 278 278 277 274 266 258 286 292 278 243 258 277 284 285 274 269 279 288
223 224 231 232 231 235 239 242 247 253 249 250 253 257 258 263 269 273 272 269 274 280 284 276 253 241 246 265 279 280 271 269 273 279 283 280 275 283
263 255 247 244 241 238 241 243 242 245 247 247 248 249 250 253 263 267 267 275 277 273 276 276 267 280 271 264 272 276 274 271 272 273 280 289 294 294
264 266 263 258 254 248 245 244 246 245 244 243 246 248 246 246 254 260 262 266 268 269 274 279 283 285 254 254 270 280 287 291 288 287 278 269 271 278
258 260 262 263 259 253 246 245 248 250 244 241 244 246 246 249 253 255 259 261 267 272 279 286 287 273 262 260 269 278 284 292 297 299 287 288 285 281